QPF
0.00 0.00 0.00 0.00 0.00 0.00 0.00 0.00 0.00 0.00 0.00 0.00 0.00 0.00 0.00 0.00 0.00 0.00 0.00 0.00 0.00 0.00 0.00 0.00 0.00 0.00 0.00 0.00 0.00 0.00 0.00 0.00 0.00 0.00 0.00 0.00 0.00 0.00 0.00 0.00 0.00 0.00 0.00 0.00 0.00
0.00 0.00 0.00 0.00 0.00 0.00 0.00 0.00 0.00 0.00 0.00 0.00 0.00 0.00 0.00 0.00 0.00 0.00 0.00 0.00 0.00 0.00 0.00 0.00 0.00 0.00 0.00 0.00 0.00 0.00 0.00 0.00 0.00 0.00 0.00 0.00 0.00 0.00 0.00 0.00 0.00 0.00 0.00 0.00 0.00
0.00 0.00 0.00 0.00 0.00 0.00 0.00 0.00 0.00 0.00 0.00 0.00 0.00 0.00 0.00 0.00 0.00 0.00 0.00 0.00 0.00 0.00 0.00 0.00 0.00 0.00 0.00 0.00 0.00 0.00 0.00 0.00 0.00 0.00 0.00 0.00 0.00 0.00 0.00 0.00 0.00 0.00 0.00 0.00 0.00
0.00 0.00 0.00 0.00 0.00 0.00 0.00 0.00 0.00 0.00 0.00 0.00 0.00 0.00 0.00 0.00 0.00 0.00 0.00 0.00 0.00 0.00 0.00 0.00 0.00 0.00 0.00 0.00 0.00 0.00 0.00 0.00 0.00 0.00 0.00 0.00 0.00 0.00 0.00 0.00 0.00 0.00 0.00 0.00 0.00
0.00 0.00 0.00 0.00 0.00 0.00 0.00 0.00 0.00 0.00 0.00 0.00 0.00 0.00 0.00 0.00 0.00 0.00 0.00 0.00 0.00 0.00 0.00 0.00 0.00 0.00 0.00 0.00 0.00 0.00 0.00 0.00 0.00 0.00 0.00 0.00 0.00 0.00 0.00 0.00 0.00 0.00 0.00 0.00 0.00
0.00 0.00 0.00 0.00 0.00 0.00 0.00 0.00 0.00 0.00 0.00 0.00 0.00 0.00 0.00 0.00 0.00 0.00 0.00 0.00 0.00 0.00 0.00 0.00 0.00 0.00 0.00 0.00 0.00 0.00 0.00 0.00 0.00 0.00 0.00 0.00 0.00 0.00 0.00 0.00 0.00 0.00 0.00 0.00 0.00
0.00 0.00 0.00 0.00 0.00 0.00 0.00 0.00 0.00 0.00 0.00 0.00 0.00 0.00 0.00 0.00 0.00 0.00 0.00 0.00 0.00 0.00 0.00 0.00 0.00 0.00 0.00 0.00 0.00 0.00 0.00 0.00 0.00 0.00 0.00 0.00 0.00 0.00 0.00 0.00 0.00 0.00 0.00 0.00 0.00
0.00 0.00 0.00 0.00 0.00 0.00 0.00 0.00 0.00 0.00 0.00 0.00 0.00 0.00 0.00 0.00 0.00 0.00 0.00 0.00 0.00 0.00 0.00 0.00 0.00 0.00 0.00 0.00 0.00 0.00 0.00 0.00 0.00 0.00 0.00 0.00 0.00 0.00 0.00 0.00 0.00 0.00 0.00 0.00 0.00
0.00 0.00 0.00 0.00 0.00 0.00 0.00 0.00 0.00 0.00 0.00 0.00 0.00 0.00 0.00 0.00 0.00 0.00 0.00 0.00 0.00 0.00 0.00 0.00 0.00 0.00 0.00 0.00 0.00 0.00 0.00 0.00 0.00 0.00 0.00 0.00 0.00 0.00 0.00 0.00 0.00 0.00 0.00 0.00 0.00
0.00 0.00 0.00 0.00 0.00 0.00 0.00 0.00 0.00 0.00 0.00 0.00 0.00 0.00 0.00 0.00 0.00 0.00 0.00 0.00 0.00 0.00 0.00 0.00 0.00 0.00 0.00 0.00 0.00 0.00 0.00 0.00 0.00 0.00 0.00 0.00 0.00 0.00 0.00 0.00 0.00 0.00 0.00 0.00 0.00
0.00 0.00 0.00 0.00 0.00 0.00 0.00 0.00 0.00 0.00 0.00 0.00 0.00 0.00 0.00 0.00 0.00 0.00 0.00 0.00 0.00 0.00 0.00 0.00 0.00 0.00 0.00 0.00 0.00 0.00 0.00 0.00 0.00 0.00 0.00 0.00 0.00 0.00 0.00 0.00 0.00 0.00 0.00 0.00 0.00
0.00 0.00 0.00 0.00 0.00 0.00 0.00 0.00 0.00 0.00 0.00 0.00 0.00 0.00 0.00 0.00 0.00 0.00 0.00 0.00 0.00 0.00 0.00 0.00 0.00 0.00 0.00 0.00 0.00 0.00 0.00 0.00 0.00 0.00 0.00 0.00 0.00 0.00 0.00 0.00 0.00 0.00 0.00 0.00 0.00
0.00 0.00 0.00 0.00 0.00 0.00 0.00 0.00 0.00 0.00 0.00 0.00 0.00 0.00 0.00 0.00 0.00 0.00 0.00 0.00 0.00 0.00 0.00 0.00 0.00 0.00 0.00 0.00 0.00 0.00 0.00 0.00 0.00 0.00 0.00 0.00 0.00 0.00 0.00 0.00 0.00 0.00 0.00 0.00 0.00
0.00 0.00 0.00 0.00 0.00 0.00 0.00 0.00 0.00 0.00 0.00 0.00 0.00 0.00 0.00 0.00 0.00 0.00 0.00 0.00 0.00 0.00 0.00 0.00 0.00 0.00 0.00 0.00 0.00 0.00 0.00 0.00 0.00 0.00 0.00 0.00 0.00 0.00 0.00 0.00 0.00 0.00 0.00 0.00 0.00
0.00 0.00 0.00 0.00 0.00 0.00 0.00 0.00 0.00 0.00 0.00 0.00 0.00 0.00 0.00 0.00 0.00 0.00 0.00 0.00 0.00 0.00 0.00 0.00 0.00 0.00 0.00 0.00 0.00 0.00 0.00 0.00 0.00 0.00 0.00 0.00 0.00 0.00 0.00 0.00 0.00 0.00 0.00 0.00 0.00
0.00 0.00 0.00 0.00 0.00 0.00 0.00 0.00 0.00 0.00 0.00 0.00 0.00 0.00 0.00 0.00 0.00 0.00 0.00 0.00 0.00 0.00 0.00 0.00 0.00 0.00 0.00 0.00 0.00 0.00 0.00 0.00 0.00 0.00 0.00 0.00 0.00 0.00 0.00 0.00 0.00 0.00 0.00 0.00 0.00
0.00 0.00 0.00 0.00 0.00 0.00 0.00 0.00 0.00 0.00 0.00 0.00 0.00 0.00 0.00 0.00 0.00 0.00 0.00 0.00 0.00 0.00 0.00 0.00 0.00 0.00 0.00 0.00 0.00 0.00 0.00 0.00 0.00 0.00 0.00 0.00 0.00 0.00 0.00 0.00 0.00 0.00 0.00 0.00 0.00
0.01 0.02 0.01 0.00 0.00 0.00 0.00 0.03 0.01 0.00 0.00 0.00 0.00 0.00 0.00 0.00 0.00 0.00 0.00 0.00 0.00 0.00 0.00 0.00 0.00 0.00 0.00 0.00 0.00 0.00 0.00 0.00 0.00 0.00 0.00 0.00 0.00 0.00 0.00 0.00 0.00 0.00 0.00 0.00 0.00
0.01 0.03 0.02 0.00 0.00 0.00 0.02 0.03 0.00 0.00 0.00 0.00 0.00 0.00 0.00 0.00 0.00 0.00 0.00 0.00 0.00 0.00 0.00 0.00 0.00 0.00 0.00 0.00 0.00 0.00 0.00 0.00 0.00 0.00 0.00 0.00 0.00 0.00 0.00 0.00 0.00 0.00 0.00 0.00 0.00
0.04 0.04 0.01 0.00 0.00 0.02 0.02 0.01 0.00 0.00 0.00 0.00 0.00 0.00 0.00 0.00 0.00 0.00 0.00 0.00 0.00 0.00 0.00 0.00 0.00 0.00 0.00 0.00 0.00 0.00 0.00 0.00 0.00 0.00 0.00 0.00 0.00 0.00 0.00 0.00 0.00 0.00 0.00 0.00 0.00
0.05 0.02 0.00 0.00 0.05 0.04 0.01 0.00 0.00 0.00 0.00 0.00 0.00 0.00 0.00 0.00 0.00 0.00 0.00 0.00 0.00 0.00 0.00 0.00 0.00 0.00 0.00 0.00 0.00 0.00 0.00 0.00 0.00 0.00 0.00 0.00 0.00 0.00 0.00 0.00 0.00 0.00 0.00 0.00 0.00
0.01 0.01 0.01 0.01 0.03 0.01 0.00 0.00 0.00 0.00 0.00 0.00 0.00 0.00 0.00 0.00 0.00 0.00 0.00 0.00 0.00 0.00 0.00 0.00 0.00 0.00 0.00 0.00 0.00 0.00 0.00 0.00 0.00 0.00 0.00 0.00 0.00 0.00 0.00 0.00 0.00 0.00 0.00 0.00 0.00
0.02 0.06 0.07 0.08 0.04 0.02 0.00 0.00 0.00 0.00 0.00 0.00 0.00 0.00 0.00 0.00 0.00 0.00 0.00 0.00 0.00 0.00 0.00 0.00 0.00 0.00 0.00 0.00 0.00 0.00 0.00 0.00 0.00 0.00 0.00 0.00 0.00 0.00 0.00 0.00 0.00 0.00 0.00 0.00 0.00
0.01 0.04 0.08 0.10 0.03 0.05 0.04 0.04 0.02 0.00 0.00 0.00 0.00 0.00 0.00 0.00 0.00 0.00 0.00 0.00 0.00 0.00 0.00 0.00 0.00 0.00 0.00 0.00 0.00 0.00 0.00 0.00 0.00 0.00 0.00 0.00 0.00 0.00 0.00 0.00 0.00 0.00 0.00 0.00 0.00
0.05 0.04 0.05 0.05 0.04 0.03 0.03 0.03 0.03 0.02 0.00 0.00 0.00 0.00 0.00 0.00 0.00 0.00 0.00 0.00 0.00 0.00 0.00 0.00 0.00 0.00 0.00 0.00 0.00 0.00 0.00 0.00 0.00 0.00 0.00 0.00 0.00 0.00 0.00 0.00 0.00 0.00 0.00 0.00 0.00
0.04 0.05 0.03 0.02 0.03 0.02 0.04 0.03 0.02 0.00 0.00 0.00 0.00 0.00 0.00 0.00 0.00 0.00 0.00 0.00 0.00 0.00 0.00 0.00 0.00 0.00 0.00 0.00 0.00 0.00 0.00 0.00 0.00 0.00 0.00 0.00 0.00 0.00 0.00 0.00 0.00 0.00 0.00 0.00 0.00
0.05 0.05 0.02 0.00 0.02 0.05 0.03 0.04 0.03 0.01 0.00 0.00 0.00 0.00 0.00 0.00 0.00 0.00 0.00 0.00 0.00 0.00 0.00 0.00 0.00 0.00 0.00 0.00 0.00 0.00 0.00 0.00 0.00 0.00 0.00 0.00 0.00 0.00 0.00 0.00 0.00 0.00 0.00 0.00 0.00
MSLP
1018.55 1018.18 1017.85 1017.67 1017.52 1017.07 1016.65 1016.62 1016.67 1016.15 1015.57 1015.20 1014.62 1014.02 1013.32 1012.96 1012.36 1010.79 1009.22 1007.39 1007.17 1008.01 1008.34 1007.66 1007.51 1006.95 1006.31 1006.01 1005.33 1004.99 1004.59 1003.34 1002.42 1001.30 1000.42 1000.28 1000.10 1000.17 1000.33 1000.83 1001.41 1001.62 1002.41 1003.45 1004.20
1018.23 1018.07 1017.79 1017.61 1017.35 1017.10 1016.67 1016.54 1016.32 1015.84 1015.55 1015.07 1014.57 1013.88 1013.09 1012.65 1011.41 1008.54 1006.76 1006.75 1006.82 1007.20 1007.84 1006.86 1006.44 1006.07 1005.66 1005.18 1004.86 1004.49 1003.74 1002.87 1002.22 1001.34 1000.75 1000.47 1000.50 1000.52 1000.49 1000.34 1000.53 1001.05 1002.14 1003.18 1004.03
1018.05 1017.81 1017.53 1017.34 1017.05 1016.71 1016.35 1016.08 1015.91 1015.59 1015.23 1014.74 1014.20 1013.52 1012.72 1012.24 1009.79 1006.19 1005.92 1005.79 1006.01 1006.52 1006.55 1006.05 1005.64 1005.19 1004.99 1004.60 1004.04 1003.57 1002.78 1002.55 1002.11 1001.56 1001.12 1000.87 1000.58 1000.64 1000.19 1000.25 1000.40 1001.09 1001.67 1002.93 1003.82
1017.87 1017.55 1017.30 1017.15 1016.99 1016.74 1016.38 1016.06 1015.78 1015.31 1014.85 1014.32 1013.96 1013.16 1012.26 1011.35 1008.39 1005.86 1005.80 1005.98 1006.30 1006.12 1006.47 1005.70 1005.22 1004.76 1003.78 1003.52 1003.22 1002.91 1002.14 1001.74 1001.40 1001.30 1001.22 1000.88 1000.44 1000.49 1000.38 1000.47 1000.52 1000.93 1001.79 1002.51 1003.02
1017.77 1017.44 1017.23 1017.14 1016.89 1016.37 1015.95 1015.77 1015.41 1015.20 1014.74 1014.45 1013.91 1013.30 1012.05 1009.82 1006.75 1005.58 1006.08 1006.28 1006.42 1006.41 1005.81 1005.48 1004.59 1003.85 1002.85 1002.64 1002.57 1002.07 1001.44 1001.06 1000.92 1001.01 1001.11 1000.47 1000.10 1000.12 1000.15 1000.26 1000.49 1000.90 1001.64 1002.13 1002.64
1017.40 1017.02 1016.91 1016.73 1016.41 1015.97 1015.71 1015.39 1015.11 1014.73 1014.44 1014.02 1013.74 1013.37 1011.98 1008.78 1005.97 1005.46 1005.26 1005.99 1005.52 1005.80 1005.52 1005.01 1004.25 1003.57 1002.86 1002.31 1001.90 1001.43 1001.09 1000.60 1000.75 1000.66 1000.27 1000.02 999.80 999.89 999.95 1000.20 1000.61 1001.05 1001.50 1002.00 1002.38
1017.37 1017.04 1016.66 1016.29 1015.99 1015.65 1015.29 1014.80 1014.33 1013.87 1013.45 1013.34 1013.36 1012.86 1010.74 1006.63 1005.60 1004.40 1004.21 1004.47 1005.00 1004.95 1004.58 1004.34 1004.29 1003.80 1002.72 1002.09 1001.73 1001.32 1000.95 1000.51 1000.05 999.83 999.73 999.73 999.27 999.31 999.88 999.90 1000.21 1000.52 1000.91 1001.54 1002.08
1017.14 1016.72 1016.35 1016.03 1015.66 1015.29 1014.91 1014.50 1014.13 1013.80 1013.41 1013.09 1013.34 1012.71 1008.53 1005.91 1005.43 1005.16 1004.70 1004.26 1003.69 1003.62 1003.42 1003.51 1003.39 1003.31 1002.93 1002.54 1001.82 1001.34 1001.03 999.96 999.45 999.14 998.76 998.93 998.71 999.08 999.39 999.33 999.85 999.95 1000.33 1000.74 1001.43
1017.00 1016.55 1016.18 1015.82 1015.41 1015.06 1014.71 1014.23 1013.53 1013.02 1012.75 1012.62 1012.56 1011.12 1006.61 1003.95 1004.39 1003.14 1003.15 1003.06 1002.67 1002.67 1002.60 1002.91 1003.10 1002.86 1003.02 1002.77 1001.88 1000.99 1000.03 999.49 998.64 998.13 997.70 997.51 998.18 998.86 998.97 998.85 998.88 999.32 999.57 999.91 1000.44
1016.83 1016.44 1016.04 1015.65 1015.27 1014.88 1014.40 1013.60 1011.74 1012.19 1011.44 1011.21 1009.98 1009.27 1005.41 1002.34 1001.61 1001.73 1002.00 1002.17 1002.26 1002.38 1002.42 1002.62 1002.38 1002.30 1001.85 1001.74 1000.09 1000.14 999.35 998.77 998.01 997.41 996.68 997.30 997.63 998.03 998.17 998.26 998.28 998.49 998.56 998.93 999.87
1016.82 1016.40 1015.96 1015.52 1015.10 1014.66 1014.20 1012.12 1010.08 1009.90 1009.03 1006.39 1004.76 1003.08 1000.59 1000.48 1000.80 1000.45 1000.49 1001.09 1001.80 1001.75 1001.44 1001.99 1001.71 1000.53 1000.57 1000.23 1000.43 999.76 998.75 997.72 996.88 996.27 997.78 997.53 997.13 997.16 997.43 997.62 997.65 997.59 997.81 998.28 999.25
1016.44 1016.20 1015.90 1015.39 1014.87 1014.56 1014.34 1012.43 1009.05 1008.25 1006.30 1004.84 1003.46 1001.83 1001.38 1000.52 1000.00 999.84 999.71 1000.09 1000.52 1000.43 1000.99 1001.17 999.65 1000.10 1000.14 999.81 999.69 999.15 998.45 997.57 996.90 996.41 996.54 996.74 996.59 996.87 997.12 997.17 997.02 997.00 997.27 997.78 998.92
1016.11 1015.97 1015.65 1015.18 1014.61 1013.82 1012.54 1010.92 1009.50 1008.18 1006.08 1002.74 1001.30 1000.54 1000.53 1000.52 999.20 998.64 999.04 998.93 999.10 999.74 999.64 998.92 998.25 999.58 999.14 998.54 998.43 998.25 997.83 997.59 997.12 996.83 996.89 996.89 996.59 996.62 996.41 995.92 995.91 996.02 996.65 997.60 998.95
1015.55 1015.59 1015.49 1015.26 1014.55 1011.60 1009.88 1008.71 1008.20 1008.04 1005.44 999.49 997.73 996.44 998.19 999.39 997.37 997.91 997.36 998.11 998.29 998.10 998.77 997.72 998.15 997.69 997.70 997.09 997.30 997.00 997.20 997.06 996.95 997.24 997.08 997.22 996.24 996.15 996.07 995.51 995.10 995.51 996.09 997.11 998.59
1015.10 1015.04 1015.09 1015.28 1013.43 1011.74 1009.97 1008.86 1007.91 1007.85 1003.24 994.16 992.81 992.86 993.97 995.20 994.76 994.98 996.43 996.64 996.66 997.14 997.69 995.30 996.22 996.21 995.51 995.73 996.12 995.79 996.16 996.18 996.58 997.18 997.43 997.63 997.22 996.23 995.57 994.87 994.48 995.14 995.67 996.58 998.21
1014.58 1014.49 1014.62 1014.07 1013.34 1011.76 1010.62 1009.91 1009.00 1006.83 999.40 993.15 990.22 991.49 993.02 994.10 994.13 993.09 994.98 996.10 996.53 996.47 995.72 995.43 995.27 994.75 994.42 994.44 994.79 995.40 995.63 995.88 996.70 997.14 996.96 997.09 996.96 995.92 995.12 994.63 994.73 995.11 995.55 996.80 998.21
1014.01 1013.85 1014.01 1013.18 1011.73 1010.50 1010.23 1010.26 1008.38 1003.36 996.79 992.72 990.77 991.20 992.05 992.44 993.61 993.93 994.14 994.84 994.46 995.04 994.04 994.48 993.85 993.53 993.56 993.50 993.69 994.42 995.07 995.71 996.69 996.98 996.59 996.64 996.18 995.13 994.46 994.46 994.65 995.23 995.88 997.02 998.39
1013.33 1013.26 1012.85 1012.43 1011.91 1011.11 1011.37 1010.56 1006.60 1000.30 997.65 992.24 991.40 991.25 991.46 991.72 992.07 992.80 992.61 993.30 993.62 993.28 993.42 993.09 992.47 992.05 991.76 991.99 992.50 993.04 994.52 995.15 995.81 996.34 996.13 995.51 995.03 994.04 993.97 994.08 994.68 995.46 996.26 997.38 998.55
1012.80 1012.28 1011.89 1011.65 1011.21 1011.12 1011.40 1009.36 1004.85 1001.59 998.04 996.46 994.02 992.86 991.10 991.27 990.78 991.90 991.51 991.09 991.38 991.66 991.76 991.52 990.84 991.20 991.25 991.28 991.91 992.46 993.57 994.90 995.70 995.73 995.49 995.03 994.57 993.92 993.83 994.19 994.63 995.27 996.47 997.61 998.84
1012.40 1011.82 1010.69 1010.40 1010.41 1011.03 1010.65 1008.09 1004.42 1002.59 1000.05 998.81 996.95 994.82 993.35 991.09 990.72 990.41 990.35 989.52 989.98 990.68 991.41 990.53 990.48 990.04 990.07 990.76 991.10 991.74 993.20 994.48 995.34 995.61 995.40 994.60 993.54 992.78 993.58 993.90 994.35 995.45 996.66 997.88 999.02
1012.31 1011.65 1009.67 1009.54 1009.77 1010.79 1009.02 1006.65 1004.66 1003.65 1002.45 1001.52 999.57 997.78 996.29 994.68 992.17 989.62 989.53 988.80 988.83 989.51 990.70 990.53 989.97 989.29 989.21 989.18 989.97 991.65 992.04 993.24 994.74 995.18 995.02 994.64 993.34 992.37 993.06 993.65 994.41 995.45 996.58 997.94 998.91
1012.17 1011.52 1008.91 1008.83 1010.25 1009.96 1008.69 1006.92 1006.05 1004.54 1003.49 1002.34 1001.41 1000.31 999.07 996.60 994.25 992.03 988.59 987.96 987.22 988.39 989.09 989.24 989.50 989.32 988.16 988.66 989.90 990.90 991.74 992.53 993.70 994.42 994.33 993.85 993.59 993.01 993.17 993.64 994.37 995.40 996.52 997.94 998.77
1011.95 1010.89 1009.03 1008.55 1009.41 1009.35 1008.17 1007.10 1005.90 1004.56 1003.30 1002.52 1002.16 1001.55 1000.06 998.74 996.61 992.65 989.97 987.73 987.50 987.42 987.72 989.12 989.61 989.39 988.56 988.41 989.10 990.34 991.27 992.04 992.98 993.84 993.72 993.63 992.95 992.80 993.03 993.49 994.04 994.80 996.09 997.79 998.50
1012.41 1010.99 1010.01 1010.17 1009.54 1008.93 1007.80 1006.48 1005.32 1004.52 1003.08 1002.32 1002.64 1002.16 1001.91 1000.16 998.03 994.67 992.00 988.95 987.15 986.96 987.70 988.98 988.95 989.00 987.86 987.51 988.61 989.70 990.55 991.24 992.16 992.71 993.24 992.82 992.28 992.22 992.97 993.30 993.88 994.47 995.55 996.96 998.07
1012.03 1010.51 1009.54 1009.36 1009.33 1009.02 1008.57 1007.16 1005.50 1004.64 1002.97 1002.08 1001.61 1001.70 1001.45 1000.29 998.52 996.26 994.80 993.45 989.58 987.67 987.68 988.39 988.74 988.84 988.82 988.30 987.99 988.71 989.74 990.47 990.81 991.68 992.11 992.35 992.07 991.92 992.38 992.98 993.29 994.05 995.07 996.20 997.45
1011.49 1010.45 1009.54 1009.02 1008.53 1008.05 1007.75 1006.39 1005.05 1003.70 1002.63 1001.68 1001.49 1000.62 1001.04 1000.47 999.30 998.33 997.98 996.38 993.24 990.09 988.19 987.99 988.40 989.21 988.66 988.62 987.72 987.83 988.52 989.67 990.08 990.66 991.48 991.77 991.57 991.65 991.67 992.06 992.55 993.40 994.50 995.59 996.78
1011.03 1010.77 1010.38 1009.16 1008.46 1007.90 1006.61 1005.82 1005.16 1004.21 1002.21 1001.37 1000.98 1000.37 1000.40 1000.33 999.69 999.19 998.67 997.53 995.74 994.08 991.57 988.53 988.00 988.62 988.40 988.27 987.78 986.76 987.16 988.19 989.16 989.66 990.24 990.42 991.09 991.28 991.16 991.34 991.85 992.74 993.78 994.89 995.97
Thickness
5655 5659 5662 5666 5670 5676 5682 5687 5690 5696 5705 5711 5719 5725 5732 5736 5743 5760 5766 5785 5789 5785 5783 5786 5784 5787 5790 5783 5793 5794 5755 5754 5768 5781 5794 5814 5802 5813 5817 5795 5795 5792 5780 5780 5781
5650 5651 5655 5657 5661 5665 5672 5676 5681 5690 5695 5704 5711 5719 5728 5732 5744 5763 5786 5787 5790 5786 5777 5776 5771 5778 5771 5777 5781 5770 5754 5762 5787 5795 5791 5800 5797 5799 5795 5791 5788 5785 5783 5779 5777
5643 5644 5647 5651 5654 5658 5663 5670 5675 5681 5688 5696 5704 5714 5723 5728 5744 5772 5787 5790 5791 5787 5783 5782 5781 5775 5762 5774 5777 5773 5758 5775 5782 5792 5795 5789 5791 5799 5789 5778 5789 5776 5778 5768 5767
5636 5639 5642 5644 5645 5647 5652 5660 5666 5674 5682 5691 5697 5707 5716 5724 5717 5772 5783 5783 5780 5781 5772 5771 5768 5757 5762 5760 5779 5757 5779 5782 5785 5791 5786 5782 5794 5782 5785 5782 5795 5787 5785 5774 5766
5631 5632 5635 5636 5639 5643 5647 5652 5658 5664 5673 5679 5687 5695 5708 5713 5737 5768 5767 5769 5770 5769 5764 5757 5755 5760 5754 5768 5771 5766 5778 5788 5790 5787 5785 5791 5783 5781 5780 5792 5794 5788 5782 5772 5766
5627 5626 5630 5633 5636 5640 5643 5646 5651 5659 5665 5673 5677 5682 5692 5692 5760 5763 5761 5756 5761 5758 5753 5753 5751 5764 5756 5761 5762 5778 5778 5782 5783 5782 5786 5779 5779 5781 5784 5790 5780 5778 5772 5769 5765
5618 5620 5623 5629 5632 5636 5639 5643 5650 5658 5664 5667 5668 5673 5683 5721 5748 5756 5758 5757 5757 5754 5745 5753 5755 5748 5761 5754 5775 5773 5758 5770 5777 5783 5778 5785 5768 5771 5786 5784 5775 5772 5771 5768 5764
5612 5615 5617 5619 5624 5629 5634 5638 5642 5645 5652 5657 5656 5661 5688 5735 5738 5742 5748 5751 5762 5762 5761 5763 5764 5751 5747 5760 5757 5749 5753 5741 5774 5783 5788 5782 5746 5778 5788 5780 5770 5772 5771 5767 5764
5603 5606 5609 5611 5615 5618 5623 5630 5637 5643 5648 5651 5655 5662 5689 5746 5732 5754 5753 5746 5755 5759 5762 5762 5753 5742 5741 5725 5726 5741 5728 5741 5761 5790 5789 5785 5757 5773 5787 5782 5774 5772 5771 5770 5764
5589 5592 5597 5601 5605 5609 5614 5622 5637 5637 5647 5651 5664 5661 5702 5729 5746 5752 5754 5751 5742 5743 5739 5737 5737 5725 5733 5723 5714 5727 5738 5751 5755 5781 5795 5775 5766 5776 5782 5780 5775 5776 5775 5772 5765
5573 5576 5581 5586 5591 5596 5602 5622 5644 5640 5646 5673 5690 5701 5731 5742 5751 5748 5753 5742 5736 5729 5715 5728 5714 5714 5731 5745 5744 5749 5752 5758 5780 5799 5767 5765 5770 5778 5784 5779 5776 5777 5777 5773 5763
5557 5559 5563 5569 5575 5581 5585 5601 5628 5637 5646 5674 5688 5704 5718 5728 5721 5735 5750 5726 5721 5710 5723 5716 5713 5736 5745 5748 5743 5746 5745 5752 5777 5792 5784 5775 5771 5778 5779 5774 5776 5775 5775 5773 5763
5538 5540 5544 5549 5558 5570 5583 5596 5610 5624 5628 5671 5695 5699 5710 5712 5714 5726 5733 5731 5721 5709 5717 5719 5741 5742 5741 5743 5739 5743 5742 5747 5755 5775 5780 5769 5756 5764 5777 5786 5789 5788 5781 5774 5758
5514 5516 5520 5524 5538 5564 5582 5596 5603 5608 5607 5673 5704 5724 5718 5713 5718 5740 5747 5732 5722 5716 5719 5730 5745 5742 5739 5740 5749 5732 5760 5760 5761 5750 5730 5766 5725 5757 5768 5773 5784 5781 5777 5771 5760
5487 5490 5494 5497 5518 5534 5558 5575 5589 5591 5595 5722 5732 5757 5746 5726 5745 5743 5752 5738 5724 5724 5723 5739 5740 5738 5743 5748 5758 5750 5771 5770 5766 5747 5742 5737 5725 5746 5770 5767 5780 5776 5777 5769 5760
5464 5465 5470 5477 5488 5505 5525 5542 5554 5559 5608 5699 5743 5724 5722 5724 5732 5753 5737 5739 5739 5725 5739 5740 5759 5757 5760 5771 5770 5773 5766 5767 5759 5747 5717 5736 5731 5737 5756 5768 5772 5775 5774 5765 5757
5451 5452 5452 5460 5478 5489 5499 5507 5522 5558 5676 5693 5716 5716 5716 5716 5715 5720 5717 5713 5717 5702 5717 5733 5742 5762 5769 5756 5775 5765 5752 5718 5706 5706 5707 5747 5734 5745 5775 5779 5775 5770 5769 5759 5754
5442 5441 5443 5448 5454 5464 5467 5471 5510 5608 5634 5716 5722 5712 5693 5715 5713 5716 5717 5712 5727 5730 5723 5718 5716 5752 5774 5765 5759 5762 5747 5722 5692 5699 5718 5758 5727 5757 5782 5787 5782 5774 5766 5758 5749
5435 5438 5441 5442 5446 5449 5446 5455 5523 5581 5632 5646 5676 5671 5697 5699 5717 5707 5715 5725 5737 5743 5722 5727 5733 5769 5772 5780 5774 5759 5735 5758 5731 5745 5732 5744 5756 5776 5778 5774 5772 5766 5759 5750 5743
5428 5429 5437 5437 5440 5435 5432 5458 5522 5559 5592 5596 5611 5645 5646 5697 5700 5703 5711 5737 5735 5746 5752 5749 5730 5766 5775 5780 5778 5766 5771 5727 5730 5697 5696 5733 5752 5761 5758 5763 5766 5758 5753 5747 5740
5418 5417 5435 5436 5435 5421 5439 5480 5507 5523 5542 5541 5563 5591 5611 5630 5671 5710 5706 5736 5747 5745 5746 5751 5746 5756 5776 5759 5753 5749 5748 5747 5741 5734 5711 5708 5741 5780 5768 5770 5761 5758 5755 5744 5738
5410 5414 5437 5437 5419 5419 5438 5471 5478 5492 5509 5522 5538 5558 5579 5611 5628 5651 5709 5727 5760 5753 5731 5753 5744 5728 5757 5779 5778 5766 5753 5753 5724 5717 5736 5743 5737 5779 5775 5774 5769 5759 5753 5746 5741
5406 5417 5433 5439 5424 5423 5450 5461 5471 5482 5501 5512 5517 5537 5564 5574 5601 5654 5688 5737 5752 5746 5740 5745 5724 5716 5736 5765 5770 5749 5754 5758 5752 5743 5729 5722 5738 5780 5777 5772 5772 5762 5754 5744 5740
5397 5415 5426 5420 5424 5435 5451 5462 5468 5478 5493 5502 5501 5520 5526 5557 5591 5627 5662 5711 5751 5754 5749 5741 5732 5720 5724 5749 5758 5738 5747 5756 5746 5725 5727 5737 5755 5770 5760 5764 5766 5765 5755 5749 5741
5401 5419 5428 5426 5423 5422 5424 5443 5460 5465 5488 5500 5508 5511 5525 5546 5574 5613 5623 5632 5689 5731 5745 5733 5712 5730 5743 5760 5767 5754 5746 5749 5744 5745 5729 5743 5750 5766 5766 5765 5768 5767 5758 5751 5743
5403 5414 5426 5429 5433 5432 5423 5444 5460 5473 5482 5490 5495 5519 5522 5535 5559 5570 5582 5605 5645 5690 5728 5731 5712 5723 5727 5746 5759 5749 5753 5748 5751 5751 5744 5748 5749 5777 5784 5778 5774 5767 5759 5752 5745
5410 5409 5413 5423 5427 5425 5442 5448 5449 5461 5486 5494 5501 5510 5508 5533 5549 5561 5573 5595 5616 5634 5660 5706 5717 5708 5701 5736 5745 5736 5753 5750 5751 5758 5755 5739 5756 5774 5775 5778 5779 5769 5764 5757 5752